Regional Weather Roundup
Issued by NWS Little Rock, AR

Home | Current Version | Previous Version | Graphics & Text | Print | Product List | Glossary On
Versions: 1 2 3 4 5 6 7 8 9 10 11 12 13 14 15 16 17 18 19 20 21 22 23 24 25 26 27 28 29 30 31 32 33 34 35 36 37 38 39 40 41 42 43 44 45 46 47 48 49 50
000
ASUS44 KLZK 221605
RWRLZK

WEATHER ROUNDUP FOR ARKANSAS
NATIONAL WEATHER SERVICE LITTLE ROCK AR
1100 AM CDT MON SEP 22 2014

NOTE: "FAIR" INDICATES FEW OR NO CLOUDS BELOW 12,000 FEET WITH NO
SIGNIFICANT WEATHER AND/OR OBSTRUCTIONS TO VISIBILITY.

ARZ001-003-010-029-221700-
NORTHWEST ARKANSAS

CITY           SKY/WX    TMP DP  RH WIND       PRES   REMARKS
FAYETTEVILLE   SUNNY     66  52  60 VRB7      30.30F
FORT SMITH     SUNNY     71  54  54 VRB6      30.28S
HARRISON       SUNNY     65  50  58 NE8       30.31S
BENTONVILLE    MOSUNNY   66  52  59 E6        30.32S
ROGERS         MOSUNNY   65  50  58 E8        30.32S
SILOAM SPGS    SUNNY     66  52  59 E7        30.31F
HIGHFILL       SUNNY     67  52  58 E9        30.30F
SPRINGDALE     MOSUNNY   64  52  63 NE9       30.33S
$$

ARZ004-005-016-221700-
NORTH CENTRAL ARKANSAS

CITY           SKY/WX    TMP DP  RH WIND       PRES   REMARKS
BATESVILLE     SUNNY     70  50  49 N6        30.27S
FLIPPIN        SUNNY     66  48  52 E7        30.30F
MTN HOME       SUNNY     66  50  56 VRB7      30.30S
$$

ARZ040-041-221700-
WEST CENTRAL ARKANSAS

CITY           SKY/WX    TMP DP  RH WIND       PRES   REMARKS
MENA           SUNNY     72  54  53 CALM      30.27S
MOUNT IDA      SUNNY     71  53  52 VRB5      30.24S
$$

ARZ009-017-025-026-028-221700-
NORTHEAST ARKANSAS

CITY           SKY/WX    TMP DP  RH WIND       PRES   REMARKS
CORNING          N/A     68  54  60 NE8       30.27S
JONESBORO      SUNNY     70  52  52 N10       30.26R
NEWPORT        SUNNY     70  53  54 NE14G22   30.27S
WALNUT RIDGE   SUNNY     68  36  30 NE8       30.26S
BLYTHEVILLE    SUNNY     71  55  56 NE8       30.25S
NW BLYTHEVILLE SUNNY     68  55  64 NE8       30.25S
$$

ARZ022-023-033-042-044-221700-
CENTRAL ARKANSAS

CITY           SKY/WX    TMP DP  RH WIND       PRES   REMARKS
LITTLE ROCK    MOSUNNY   72  51  47 NE9       30.25S
N LITTLE ROCK  MOSUNNY   72  55  54 NE8       30.25S
JACKSONVILLE   SUNNY     71  52  49 NE10      30.25S
SEARCY         SUNNY     72  52  49 E9        30.26S
HOT SPRINGS    SUNNY     72  51  47 E9        30.25S
RUSSELLVILLE   SUNNY     72  52  49 NE9       30.27S
$$

ARZ036-221700-
EAST ARKANSAS

CITY           SKY/WX    TMP DP  RH WIND       PRES   REMARKS
WEST MEMPHIS   SUNNY     71  54  54 NE10      30.22S
$$

ARZ050-053-066-070-073-221700-
SOUTHWEST ARKANSAS

CITY           SKY/WX    TMP DP  RH WIND       PRES   REMARKS
ARKADELPHIA    FAIR      74  55  51 NE8       30.24S
CAMDEN         SUNNY     75  52  43 NE7       30.21F
TEXARKANA      SUNNY     73  54  51 NE13      30.22S
EL DORADO      SUNNY     76  55  48 N12       30.21S
DE QUEEN       SUNNY     74  55  51 E12       30.22S
$$

ARZ056-057-069-221700-
SOUTHEAST ARKANSAS

CITY           SKY/WX    TMP DP  RH WIND       PRES   REMARKS
PINE BLUFF     SUNNY     72  52  49 N13       30.23S
STUTTGART      SUNNY     72  54  53 NE9       30.24S
MONTICELLO     SUNNY     74  54  49 NE8G17    30.20S

$$





USA.gov is the U.S. government's official web portal to all federal, state and local government web resources and services.